Location: Columbia
(38.9520°N, 92.3340°W)
Time: 07:50:44
(UTC-06:00)

Daily predictions for brighter satellites

Satellite Brightness Start Highest point End
(mag) Time Altitude Azimuth Time Altitude Azimuth Time Altitude Azimuth
SL-16 R/B 2.2 18:12:18 10° NNW 18:17:57 64° ENE 18:23:34 10° SSE
Meteor 1-18 Rocket 4.2 18:17:32 10° N 18:23:05 72° E 18:28:41 10° SSE
Cosmos 1484 Rocket 3.5 18:19:37 10° S 18:23:32 60° W 18:27:26 10° NNW
Cosmos 1975 Rocket 3.6 18:19:46 10° NNW 18:24:03 65° W 18:28:19 10° S
BREEZE-M DEB (TANK) 4.4 18:19:26 10° SSW 18:24:04 23° SSE 18:26:32 10° E
Cosmos 1340 3.8 18:21:03 10° NNE 18:24:09 23° ENE 18:27:13 10° SE
Cosmos 1140 Rocket 4.3 18:20:55 10° SSE 18:25:14 28° E 18:29:35 10° NE
SKYMED 2 3.8 18:22:31 10° N 18:26:52 76° WNW 18:31:11 10° SSW
SJ-6B 3.5 18:24:58 10° SE 18:28:37 34° ENE 18:32:13 10° N
Cosmos 1190 Rocket 4.1 18:24:09 10° SSW 18:29:20 88° WNW 18:34:34 10° NNE
TSX-5 3.6 18:28:15 10° S 18:31:18 41° ESE 18:34:19 10° NE
Meteor 1-20 Rocket 4.3 18:27:40 10° S 18:33:29 84° E 18:39:22 10° N
CENTAUR R/B 4.1 18:26:51 10° NW 18:34:34 53° WSW 18:42:37 10° S
Cosmos 2322 Rocket 2.2 18:29:29 10° NNW 18:35:08 89° WSW 18:40:45 10° SSE
Meteor 1-28 Rocket 3.5 18:31:59 10° N 18:35:47 72° WNW 18:39:34 10° SSW
Gbstr 26 Del rocket 3.4 18:33:53 10° SSW 18:37:25 34° SE 18:40:28 12° ENE
Spot 2 Rocket 4.4 18:34:42 10° ESE 18:38:54 27° ENE 18:43:07 10° N
Cosmos 1536 Rocket 3.6 18:38:33 10° N 18:42:59 59° E 18:47:24 10° SSE
Abrixas rocket 4.3 18:42:34 10° SSE 18:44:09 13° SE 18:45:01 12° ESE
FENGYUN 3A 4.0 18:41:26 10° SE 18:46:30 42° ENE 18:51:35 10° N
Cosmos 2322 4.1 18:44:11 10° N 18:49:35 41° ENE 18:54:55 10° SE
Meteor 1-13 Rocket 4.3 18:46:09 10° N 18:51:34 52° ENE 18:57:03 10° SSE
Cosmos 1536 3.6 18:50:48 10° SSE 18:54:13 28° E 18:57:39 10° NNE
HJ-1C 3.7 18:52:50 10° SSE 18:56:03 42° ENE 18:59:15 10° N
Cosmos 1954 Rocket 3.9 18:51:24 10° SSW 18:56:33 77° ESE 19:01:47 10° NNE
DNEPR-1 R/B 4.0 18:52:24 10° NW 18:56:34 61° WSW 19:00:49 10° SSE
FREGAT/IRIS 2.5 18:53:52 10° SSE 18:56:57 85° E 19:00:03 10° N
ALOS 2.4 18:52:52 10° SSE 18:57:23 52° ENE 19:01:56 10° N
Okean 1 3.7 18:56:33 10° NNW 19:00:36 68° W 19:04:37 10° S
H-2A R/B 3.3 18:58:26 10° SE 19:01:46 32° ENE 19:05:08 10° N
Resurs 01 Rocket 1.9 18:58:30 10° SE 19:02:40 44° ENE 19:06:52 10° N
COSMOS 2428 3.6 18:58:45 10° N 19:03:38 29° ENE 19:06:12 21° E
NOAA 12 4.5 18:58:22 10° S 19:03:38 70° WSW 19:08:58 10° NNW
Meteor 2-4 Rocket 4.0 19:00:37 10° N 19:05:53 42° ENE 19:10:58 10° SE
GPS 2-04 Rocket1 4.2 19:03:28 10° SW 19:07:02 26° SSE 19:08:40 20° ESE
Cosmos 2237 Rocket 4.1 19:07:52 10° NNE 19:09:51 12° NE 19:09:51 12° NE
GEOS 3 Rocket 3.6 19:05:27 10° NE 19:10:42 81° SE 19:16:00 10° SSW
Cosmos 1300 Rocket 3.5 19:07:07 10° S 19:11:30 83° E 19:15:58 10° N
Cosmos 1461 4.2 19:11:29 10° NW 19:15:16 40° WSW 19:19:08 10° S
Cosmos 2181 Rocket 4.0 19:10:06 10° N 19:16:22 85° E 19:22:43 10° S
NOSS 8 (F) 4.4 19:15:48 10° SSW 19:19:20 90° NW 19:21:21 24° NNE
Cosmos 1633 3.2 19:16:47 10° SSW 19:20:25 59° W 19:24:04 10° N
Resurs 1-3 3.5 19:18:32 10° SSE 19:22:52 62° ENE 19:27:11 10° N
Intercosmos 24 4.4 19:19:59 10° SSE 19:23:51 47° E 19:29:10 10° NNE
Cosmos 2219 3.3 19:19:01 10° S 19:24:34 52° ESE 19:30:08 10° NNE
Tiangong 2 2.2 19:22:52 10° W 19:25:44 35° SSW 19:26:29 30° S
Meteor 1-11 Rocket 3.8 19:20:11 10° S 19:25:57 85° W 19:31:53 10° N
Cosmos 2360 Rocket 2.2 19:20:57 10° NNW 19:26:38 88° WSW 19:32:18 10° SSE
Cosmos 2219 Rocket 3.2 19:24:17 10° N 19:28:49 25° NE 19:28:49 25° NE
Cosmos 1238 Rocket 3.1 19:27:34 10° NNW 19:30:27 47° W 19:33:19 10° S
Helios 1A 3.1 19:31:12 46° E 19:31:24 47° ENE 19:35:24 10° N
Cosmos 2074 Rocket 3.9 19:25:37 10° S 19:31:46 63° E 19:37:57 10° NNE
Cosmos 2184 Rocket 3.9 19:27:24 10° S 19:33:38 63° E 19:39:49 10° NNE
Cosmos 1741 Rocket 3.9 19:33:18 10° SSW 19:38:31 84° ESE 19:43:46 10° NNE
Okean 1 Rocket 3.8 19:40:05 10° SSW 19:44:28 55° W 19:48:54 10° N
Helios 1B rocket 2.3 19:49:28 75° SE 19:49:28 75° SE 19:53:23 10° S
Cosmos 1570 Rocket 3.9 19:49:05 10° NNW 19:54:20 85° WSW 19:56:33 36° SSE
Nadezhda 3 Rocket 4.4 19:49:29 10° N 19:54:16 39° NE 19:54:16 39° NE
Cosmos 2333 Rocket 3.1 19:53:34 10° N 19:57:35 32° NNE 19:57:35 32° NNE
DELTA 2 R/B (1) 4.0 19:53:52 10° W 19:59:20 54° SSW 20:00:26 46° SSE
Cosmos 2154 Rocket 4.3 19:56:18 10° SSE 20:03:40 48° NE 20:08:37 10° NNE
Cosmos 2285 Rocket 3.9 19:56:01 10° NNW 20:02:27 68° ENE 20:03:36 57° ESE
Cosmos 1025 Rocket 3.5 20:05:33 10° NNW 20:09:51 58° W 20:10:20 54° SW
ATLAS CENTAUR R/B 3.9 20:06:50 10° SW 20:08:30 19° SSW 20:08:30 19° SSW
BREEZE-M DEB (TANK) 2.9 20:11:50 10° WNW 20:14:42 76° WSW 20:14:42 76° WSW
Meteor 2-13 Rocket 4.3 20:11:54 10° S 20:17:57 86° W 20:24:05 10° N
H-2A R/B 4.4 20:24:38 10° SSW 21:02:33 - E 20:26:03 19° S
Envisat 4.2 20:35:58 36° NNW 20:35:58 36° NNW 20:38:57 10° NNW
USA 229 DEB 3.7 20:29:44 10° NW 20:36:56 86° WSW 20:37:05 85° SSW
USA 229 3.7 20:29:50 10° NW 20:37:02 87° SW 20:37:09 86° SSW
NOSS 0 Rocket 4.5 20:31:24 10° NNW 20:35:47 48° N 20:35:47 48° N
Resurs 01 Rocket 4.5 20:36:44 10° SW 20:39:21 15° W 20:41:58 10° NW
BREEZE-M DEB (TANK) 4.3 20:41:52 10° WNW 20:45:52 80° WSW 20:45:52 80° WSW
COSMOS 2428 3.8 20:42:43 10° NW 20:47:59 40° WSW 20:48:17 39° WSW
Cosmos 2237 Rocket 3.8 20:49:16 10° NNW 20:51:42 26° NNW 20:51:42 26° NNW
Cosmos 2219 Rocket 3.9 21:07:43 10° NW 21:10:34 28° NW 21:10:34 28° NW
